Location: Carri�res
(48.9069°N, 2.1792°E)
Time: 13:49:26
(UTC+00:00)

Cosmos 1939 Rocket - Pass Details

Date: 17 January 2021
Orbit: 530 x 585 km, 97.4° (Epoch: 25 February)

Event Time Altitude Azimuth Distance (km) Brightness Sun altitude
Rises 17:45:01 0° 167° (SSE) 2,799 6.5 -12.8°
Reaches altitude 10° 17:47:11 10° 168° (SSE) 1,902 5.6 -13.1°
Maximum altitude 17:51:19 85° 255° (WSW) 591 3.0 -13.7°
Drops below altitude 10° 17:55:27 10° 346° (NNW) 1,900 5.6 -14.4°
Sets 17:57:36 0° 347° (NNW) 2,797 6.4 -14.7°
